CAPE
2 3 4 2 2 0 2 2 1 1 2 2 1 0 1 2 1 2 2 1 2 2 1 1 2 1 1 1 1 5 2 0 0 0 0 0 0 0 0 0 39 4 1 0 0 0 0 0 0 0 0 0 0 0 0 0 0 0 2 33 276 219 402 444 145 89 411 819 1009 1090 1022 1075 963 1034 1076 1074 1074 1110 1193 911 993 882 1027 928 656 533 663 1048
2 2 3 2 2 1 1 1 1 1 0 0 0 0 0 0 1 1 1 1 2 2 2 0 2 1 1 1 2 2 0 0 0 0 0 0 0 84 86 64 37 15 0 0 0 0 0 0 0 0 0 0 0 0 0 0 31 31 80 433 512 604 450 726 494 396 589 655 725 1108 957 1070 1032 992 925 1229 1131 1119 999 880 728 850 1175 1098 1049 827 866 1031
2 1 2 2 2 2 2 2 1 0 0 0 0 0 0 0 0 0 1 1 1 1 0 2 1 1 0 1 0 1 0 0 0 0 0 5 0 41 124 65 56 30 0 0 0 0 0 0 0 0 0 0 0 0 0 0 44 62 201 397 734 908 976 915 1004 677 375 955 1055 1112 1209 1177 1062 991 1042 1224 1070 984 1123 1175 931 578 958 1033 1170 1173 1196 1539
2 2 1 2 2 2 1 1 1 1 0 0 0 0 1 1 1 1 1 1 0 1 2 0 1 1 1 2 1 0 0 0 0 0 0 81 59 113 298 286 177 10 0 0 0 0 0 0 0 0 0 0 0 0 8 4 125 152 57 487 610 753 762 918 973 938 929 951 1160 1305 1140 1074 1042 849 1063 811 928 950 1091 920 993 635 943 1202 1249 1273 1360 1463
2 2 1 1 0 1 1 1 0 1 0 0 0 0 1 0 1 1 1 2 0 0 1 1 0 0 2 1 0 0 0 0 0 0 7 72 190 171 351 390 9 0 0 0 0 0 0 0 0 0 0 0 0 11 36 35 232 514 870 557 567 524 997 915 853 897 910 921 814 186 1052 977 942 830 504 756 690 838 998 918 962 1068 1296 1310 1333 1282 1200 1191
2 2 1 1 0 0 0 0 0 0 0 0 0 0 0 0 0 1 1 1 0 1 1 0 0 0 1 0 0 0 234 0 0 0 308 230 319 441 545 158 0 0 0 0 0 0 0 0 0 0 0 0 0 94 325 403 346 534 693 704 573 673 912 819 793 954 847 586 832 996 968 1038 806 1048 1041 857 847 921 897 916 978 1049 960 988 1070 1003 1056 1063
2 2 0 1 0 0 0 0 0 0 0 0 0 0 0 0 1 0 1 0 1 2 0 1 1 0 0 0 0 0 88 0 0 0 39 544 497 570 338 0 0 0 0 0 0 0 0 0 0 0 20 132 309 555 671 538 645 615 886 1093 1122 985 935 772 823 855 890 871 736 435 834 865 402 933 998 779 628 1021 958 701 786 1054 972 943 882 907 954 1092
1 1 1 0 0 0 0 0 0 0 0 0 0 0 0 0 1 1 1 1 1 0 1 0 0 0 0 13 156 136 0 0 0 43 632 466 405 223 23 0 0 0 0 0 0 0 0 0 0 0 0 97 337 312 587 588 795 641 868 904 942 1019 981 895 694 824 1008 981 801 490 827 756 550 134 809 379 896 1027 941 711 947 1102 1069 1042 938 949 1100 1145
0 0 0 0 0 0 1 0 0 0 0 0 0 0 0 0 0 1 0 1 1 2 0 0 0 0 0 0 116 0 0 0 0 325 427 202 5 0 0 0 0 0 0 0 0 0 0 0 0 0 0 136 253 410 404 539 789 814 939 976 932 837 601 710 649 754 796 813 1004 974 879 835 884 749 344 423 678 658 727 829 1003 1060 1156 1193 1159 1074 943 1014
0 0 0 0 0 0 0 0 0 0 0 0 0 0 0 0 0 1 1 0 2 0 0 0 0 0 0 260 0 0 0 0 305 206 10 22 9 0 0 0 0 0 0 0 0 0 0 0 0 0 195 342 339 475 399 619 882 825 749 610 644 553 647 748 912 781 670 635 739 749 601 845 777 834 282 478 613 636 660 925 993 1061 1187 1096 991 923 1034 1100
0 0 0 0 0 0 0 0 0 0 0 0 0 0 0 0 0 1 1 1 0 0 0 0 0 0 477 70 6 0 0 2 414 127 60 0 0 0 0 0 0 0 0 0 0 0 0 0 0 0 3 474 455 580 791 792 668 525 711 692 469 606 692 748 715 729 81 810 976 593 803 689 674 593 407 668 748 843 972 1024 1108 1139 1064 1063 1091 1072 1120 1235
0 0 0 0 0 0 0 0 0 0 0 0 0 0 0 0 0 1 1 0 0 0 0 0 0 2 129 120 0 0 0 1 20 65 0 0 0 0 0 0 0 0 0 0 0 0 0 0 0 0 374 476 633 962 1029 992 931 735 595 819 663 574 702 755 554 39 35 682 886 459 108 585 837 642 304 442 368 797 1075 1115 1192 1130 997 1006 1058 1007 1143 1214
0 0 0 0 0 0 0 0 0 0 0 0 0 0 0 0 0 0 0 0 0 0 0 0 0 13 101 27 0 0 0 0 10 0 0 0 0 0 0 0 0 0 0 0 0 0 0 0 0 0 423 262 429 757 867 780 841 791 706 566 666 584 504 414 4 13 252 277 655 357 170 350 198 390 302 435 659 814 1046 997 1064 1158 1172 1198 1042 1018 1200 1223
0 0 0 0 0 0 0 0 0 0 0 0 0 0 0 0 0 0 0 0 0 0 0 0 0 76 618 0 0 0 0 0 4 0 0 0 0 0 0 0 0 0 0 0 0 0 0 0 58 398 466 562 934 773 690 704 505 702 436 485 759 632 492 330 379 324 511 312 444 406 21 228 299 288 323 399 778 920 760 804 993 1030 1031 1209 1265 1129 1092 1156
0 0 0 0 0 0 0 0 0 0 0 0 0 0 0 0 0 0 0 0 0 0 0 0 0 573 397 19 0 0 0 0 0 0 0 0 0 0 0 0 0 0 0 0 0 0 0 193 361 218 708 792 874 620 476 347 582 268 299 273 594 467 376 264 330 248 98 27 310 144 283 204 280 505 745 850 915 859 760 919 983 965 1157 1130 1086 1027 1029 1098
0 0 0 0 0 0 0 0 0 0 0 0 0 0 0 0 0 0 0 0 0 0 0 92 500 524 5 0 50 5 0 0 0 0 0 0 0 0 0 0 0 0 0 0 0 0 152 294 296 697 727 753 500 296 438 553 548 477 368 263 234 397 259 369 226 372 265 42 366 179 138 4 135 492 656 840 926 858 871 1062 1209 1171 1014 1104 968 976 930 896
0 0 0 0 0 0 0 0 0 0 0 0 0 0 0 0 0 0 0 0 0 0 20 735 148 18 2 0 0 52 0 0 0 0 0 0 0 0 0 0 0 0 0 0 46 349 562 810 661 569 377 688 337 162 339 192 234 262 292 300 492 503 383 658 463 541 310 572 413 30 533 330 170 641 699 757 849 955 928 1034 1196 1055 862 1104 1036 917 748 778
0 0 0 0 0 0 0 0 0 0 0 0 0 0 0 0 0 0 0 0 0 0 44 137 92 146 0 0 0 0 0 1 0 0 0 0 0 0 99 56 16 40 170 278 250 335 250 450 463 520 436 446 575 72 302 37 105 76 160 411 346 270 172 624 453 380 213 52 391 56 530 329 583 634 726 833 944 983 937 1011 1086 955 912 916 944 879 754 748
0 0 0 0 0 0 0 0 0 0 0 1 0 0 0 0 0 0 19 1 21 373 121 14 192 0 0 0 0 19 56 0 0 0 2 0 0 0 161 283 246 279 337 356 269 170 240 296 480 356 514 384 218 227 1 0 10 182 185 79 501 208 129 151 687 460 329 538 555 567 717 543 497 670 710 826 930 809 910 976 955 862 862 914 860 825 765 649
0 0 0 0 0 0 0 0 0 0 0 0 0 1 111 849 449 441 73 25 81 127 108 6 0 2 0 0 5 38 9 0 0 0 0 0 0 0 93 331 418 306 185 101 117 326 212 303 390 402 333 99 71 17 0 16 115 119 254 105 215 747 399 467 658 575 564 387 643 551 506 446 514 623 614 711 686 778 902 904 839 911 889 895 846 733 584 522
0 0 0 0 0 0 0 0 0 0 0 0 36 623 338 182 369 26 338 328 144 46 95 52 92 69 16 33 60 59 12 0 0 0 0 0 0 11 87 186 199 279 180 19 209 109 192 273 176 6 20 79 104 13 1 34 196 120 118 859 644 794 782 695 710 599 433 661 528 621 495 408 502 503 625 664 778 697 798 826 956 1050 974 872 854 786 648 421
0 0 0 0 0 0 0 0 0 0 0 0 8 187 0 0 0 0 72 15 47 19 20 30 0 54 12 20 33 9 17 0 0 0 0 0 0 16 16 63 2 110 61 54 70 139 87 270 84 50 76 143 37 0 0 19 102 3 164 809 705 690 689 534 527 486 474 620 717 574 498 474 519 539 488 574 651 698 938 940 1030 1016 964 924 847 884 696 494
0 0 0 0 0 0 0 0 0 0 0 9 849 0 0 0 0 0 0 135 2 0 9 23 134 3 10 0 9 3 3 0 0 0 0 0 0 0 0 0 0 0 3 19 164 21 128 59 22 165 100 51 9 0 0 0 50 309 12 183 697 609 617 666 561 634 465 667 622 502 614 584 597 566 576 610 680 818 1065 1108 1163 992 852 990 983 980 1032 715
0 0 0 0 0 0 0 0 0 0 16 187 0 0 0 0 0 1 34 424 0 0 0 0 0 0 0 0 2 6 0 0 0 0 0 0 0 0 0 0 0 0 0 0 0 12 50 16 0 0 50 16 32 10 0 0 70 88 185 154 456 401 571 432 686 608 430 571 578 515 678 634 588 631 631 666 696 889 834 881 870 794 959 1005 1064 1144 1240 960
0 0 0 0 0 0 0 0 31 191 0 5 0 0 0 0 0 11 351 12 0 6 0 0 0 0 0 0 0 0 0 0 0 0 0 0 0 0 0 0 2 0 0 0 0 0 14 0 0 0 0 5 1 9 0 0 45 118 240 394 181 404 532 604 470 504 652 494 522 544 393 92 611 576 604 769 522 645 630 816 880 945 875 818 929 1080 1020 676
0 0 0 0 0 0 0 458 40 0 4 3 0 0 0 0 0 80 313 1 0 0 0 0 0 0 0 0 0 0 0 0 0 0 0 0 0 0 0 0 0 0 0 0 2 12 12 12 1 0 0 0 0 1 6 0 36 53 256 314 286 292 294 491 445 513 241 332 534 337 141 213 499 593 643 739 558 603 636 765 870 984 881 817 856 868 815 514
0 0 0 0 0 0 580 2 0 1 49 0 0 0 0 0 86 82 198 0 0 0 0 0 0 0 0 0 0 0 0 0 0 0 0 0 0 0 4 0 0 0 0 0 45 0 7 18 16 0 0 0 0 0 25 1 3 281 76 235 120 164 356 466 497 217 728 574 402 364 228 134 295 503 534 615 635 662 651 601 845 839 953 778 805 832 887 565
0 0 0 0 0 0 173 0 0 0 0 0 0 0 1 116 203 263 292 0 3 0 0 0 0 0 0 0 0 0 3 0 0 0 0 0 0 0 0 0 0 0 0 0 131 0 0 6 2 1 0 0 22 47 0 0 114 215 252 122 139 164 249 219 360 341 424 564 645 414 156 125 120 511 526 409 591 640 704 620 641 746 822 913 943 818 812 636
0 0 0 0 0 0 0 1 0 0 0 0 0 0 72 306 340 705 60 0 0 0 0 0 0 0 0 0 0 0 0 0 0 0 0 0 0 0 0 0 0 2 3 7 19 1 0 0 0 0 4 5 2 61 4 3 144 270 270 160 186 213 250 259 240 369 387 510 644 440 343 137 317 757 570 561 477 636 824 831 737 746 776 823 1001 875 860 599
0 1 0 0 0 0 50 0 0 0 0 0 0 27 158 388 364 123 0 0 1 0 0 0 0 0 0 0 0 0 0 0 0 0 0 0 0 0 0 0 0 2 7 5 4 0 0 0 0 28 56 10 50 105 20 47 162 312 292 163 136 148 249 324 268 381 330 36 402 189 304 69 85 210 548 386 339 418 606 772 878 789 702 731 975 1026 891 630
1 0 0 0 12 0 0 34 0 0 0 0 0 128 620 333 231 0 0 22 0 0 0 0 0 0 0 0 0 0 0 0 0 0 0 0 0 0 0 0 0 0 2 3 14 3 2 8 30 2 56 103 138 144 158 182 207 270 126 141 205 261 175 131 144 311 226 72 128 211 327 138 26 246 348 372 309 284 578 640 763 778 704 797 1038 998 873 655
1 0 0 0 0 0 6 0 0 0 0 0 727 1156 489 143 2 0 63 0 41 0 0 0 0 0 0 0 0 0 0 0 0 0 0 0 0 0 0 1 0 14 56 32 14 7 45 61 15 41 68 181 57 76 215 315 265 172 134 152 82 44 170 26 218 54 68 43 200 105 105 107 226 553 537 309 352 400 546 692 682 701 800 971 1023 949 918 661
0 0 0 0 0 0 0 0 0 0 30 529 1265 235 235 46 0 33 0 14 0 0 27 0 0 0 0 0 0 0 0 0 0 0 0 0 0 0 0 0 0 11 86 0 0 0 33 9 97 61 25 130 215 34 106 124 254 309 288 8 162 0 7 1 23 125 128 84 78 110 106 217 338 347 210 328 381 398 427 698 711 698 837 957 972 918 852 498
0 0 0 0 0 0 0 0 0 0 620 976 2 259 289 0 52 25 108 0 8 0 0 0 0 0 0 0 0 0 0 0 0 0 0 0 0 0 0 0 0 0 0 0 0 0 0 60 66 62 89 9 37 14 102 57 195 20 160 15 296 244 194 22 26 51 111 546 164 142 51 31 295 973 286 454 373 421 347 525 750 779 815 978 897 821 698 422
0 0 0 0 0 0 0 0 0 162 1207 0 12 365 48 8 49 36 4 0 0 2 4 0 0 0 0 0 0 0 0 0 0 0 0 0 0 0 0 0 0 0 0 0 0 0 0 0 19 11 0 26 83 22 36 88 152 118 92 46 230 266 21 166 291 406 105 275 136 76 167 338 492 411 568 484 376 304 315 485 652 678 718 840 814 732 607 378
0 88 0 0 1 26 5 0 0 515 753 0 94 113 14 64 37 49 40 2 0 36 0 0 0 0 0 0 0 0 0 0 0 0 0 0 0 0 0 0 0 0 0 0 1 0 0 0 0 0 0 28 17 13 147 75 416 189 74 289 234 18 46 26 84 115 51 0 0 76 151 158 301 327 440 420 225 288 330 468 526 560 547 690 545 528 392 288
0 41 193 0 15 59 22 0 6 661 0 0 105 45 183 30 31 58 120 216 32 2 0 0 0 0 0 0 0 0 0 0 0 0 0 0 0 0 0 0 0 0 0 0 0 0 0 0 0 0 0 0 0 9 54 20 11 106 76 215 0 0 15 106 90 23 34 36 38 71 7 518 233 418 502 367 425 359 403 399 477 557 558 639 624 513 395 325
2 0 4 0 66 1 6 0 359 324 0 0 53 11 123 229 0 190 94 1 1 0 7 0 0 0 0 0 0 0 0 0 0 0 0 0 0 0 0 0 0 0 0 0 0 0 0 0 0 0 0 0 0 0 14 0 0 61 178 6 107 153 94 148 10 35 14 0 5 127 90 72 116 308 334 522 574 506 454 427 466 516 617 587 556 555 463 421
4 0 0 221 16 0 0 7 727 0 0 3 215 115 27 142 3 52 25 15 2 1 0 12 1 0 0 0 0 0 0 0 0 0 0 0 0 0 0 0 0 0 0 0 0 0 0 0 0 0 0 0 0 0 6 11 0 0 0 3 4 0 109 230 230 128 208 18 8 253 85 305 210 351 443 536 667 569 486 531 474 443 508 462 426 418 409 420
0 0 2 461 0 0 38 411 0 0 0 35 125 151 23 75 2 0 14 2 2 0 0 0 0 0 0 2 0 0 0 0 0 0 0 0 0 0 0 0 0 0 0 0 0 0 0 0 0 0 0 0 0 0 0 1 22 1 0 27 15 54 45 1 48 45 87 54 22 8 1 269 406 426 462 666 612 571 534 508 500 459 261 286 215 159 160 276
30 0 313 337 0 0 60 503 0 0 2 6 0 54 3 14 1 0 0 0 0 0 0 0 0 0 0 0 0 0 0 0 0 0 0 0 0 0 0 0 0 0 0 0 0 0 0 0 0 0 0 0 0 0 0 0 0 0 0 16 10 105 87 50 71 15 51 108 75 35 15 220 202 155 510 569 513 585 514 480 415 298 197 188 131 131 160 230
0 0 382 445 176 13 196 0 0 37 0 11 88 0 19 0 1 0 0 0 0 0 0 0 0 0 0 0 0 0 0 0 0 0 0 0 0 0 0 0 0 0 0 0 0 0 165 0 0 0 0 0 0 0 0 0 0 0 0 0 0 0 0 1 1 36 19 96 12 124 20 130 241 184 333 625 590 433 460 394 352 214 119 57 42 104 421 552
0 0 116 191 70 140 5 0 11 0 0 0 0 8 19 17 0 0 0 0 0 0 0 0 0 0 0 0 0 0 0 0 0 0 0 0 0 0 0 0 0 0 0 4 0 0 64 38 0 0 0 0 0 0 0 0 0 0 0 0 0 0 4 21 10 53 2 75 48 88 3 189 287 293 430 458 552 528 403 378 316 168 35 37 44 118 732 836
0 36 269 558 616 218 0 0 0 0 0 65 238 332 15 13 0 0 0 0 31 0 0 0 0 0 0 0 0 0 0 0 0 0 0 0 0 0 0 0 0 0 0 3 0 0 0 0 0 0 0 0 0 0 0 0 0 0 0 4 0 0 1 76 15 35 0 7 33 3 0 86 257 293 317 348 298 426 451 383 296 148 141 104 57 311 635 849
172 183 418 163 156 130 144 25 0 0 106 414 378 40 2 0 0 0 0 0 0 0 3 0 0 0 0 0 0 0 0 0 0 0 0 0 0 0 0 0 0 24 0 12 176 25 0 0 0 0 0 0 0 0 1 12 0 0 0 0 0 40 88 114 34 27 0 328 42 14 0 117 216 258 316 380 277 322 341 322 274 164 110 127 201 460 603 543
0 0 171 220 152 149 102 187 595 166 82 366 61 68 11 0 0 0 0 0 0 0 0 0 0 0 0 0 0 0 0 0 0 0 0 0 0 0 0 56 0 118 276 155 16 51 109 36 61 50 0 25 51 0 0 2 0 0 0 1 0 0 12 24 10 15 22 19 0 65 32 101 135 179 159 252 247 188 139 135 102 86 140 292 640 645 562 611
17 1 10 164 143 207 268 129 328 72 58 270 4 40 13 0 0 0 0 0 0 10 0 74 0 0 0 0 0 0 0 0 0 0 0 0 0 0 0 145 241 92 52 0 2 6 0 0 86 344 142 51 78 1 0 43 4 0 0 0 0 1 9 12 0 0 0 0 0 50 17 11 125 69 106 144 107 70 21 0 0 6 162 431 608 679 314 348
3 127 248 849 602 0 10 52 162 183 388 176 265 85 114 0 0 0 0 0 0 0 0 0 0 0 0 0 0 0 0 0 0 0 0 0 0 0 0 0 30 546 710 0 0 327 7 0 8 289 11 4 0 1 0 1 0 0 0 0 0 0 4 1 0 0 79 0 0 0 20 6 13 26 5 19 23 1 0 9 70 180 267 463 518 382 328 305
486 189 555 125 198 74 480 515 215 308 472 260 227 118 38 0 0 0 0 0 0 0 0 0 0 0 0 0 0 0 0 0 0 0 0 0 0 0 0 0 0 17 42 0 5 53 142 48 2 14 1 0 0 0 2 35 0 0 0 0 0 0 0 0 0 0 0 0 12 8 3 12 5 1 0 22 64 23 118 302 208 72 61 83 31 56 45 62
113 169 416 117 638 58 389 638 568 121 153 270 23 80 123 6 0 0 0 0 0 0 0 0 0 0 0 0 0 0 0 0 0 0 0 0 0 0 0 0 0 0 0 88 29 163 614 0 16 2 0 0 0 0 0 0 0 0 0 0 0 0 0 0 0 4 0 0 0 0 0 0 3 68 40 200 269 67 71 15 8 42 21 34 28 5 3 2
1072 1243 1892 371 231 722 518 424 196 32 40 124 29 285 22 1 0 0 0 0 43 1 0 0 6 87 17 0 0 0 0 0 0 0 0 0 0 0 0 0 0 0 0 1 21 56 8 7 9 6 0 0 0 0 0 0 0 0 0 0 0 0 0 0 2 0 0 0 0 0 0 0 0 11 65 177 142 19 5 16 40 5 0 0 0 0 0 0
464 683 911 964 317 507 496 419 414 34 0 49 80 172 42 0 0 0 0 0 0 0 1 0 14 0 0 0 0 2 0 0 0 0 0 0 0 0 0 0 0 0 0 9 89 53 1 0 0 0 0 0 0 0 0 0 0 0 0 2 0 0 0 0 0 0 0 0 0 0 0 2 0 0 0 9 2 0 0 0 0 0 0 0 0 0 0 0
Wind_Speed
nan nan nan nan nan nan nan nan nan nan nan nan nan nan nan nan nan nan nan nan nan nan nan nan nan nan nan nan nan nan nan nan nan nan nan nan nan nan nan nan nan nan nan nan nan nan nan nan nan nan nan nan nan nan nan nan nan nan nan nan 5 14 11 16 20 nan 15 14 12 14 19 22 24 26 28 24 24 26 28 30 31 35 34 31 21 18 12 5
nan nan nan nan nan nan nan nan nan nan nan nan nan nan nan nan nan nan nan nan nan nan nan nan nan nan nan nan nan nan nan nan nan nan nan nan nan nan nan nan nan nan nan nan nan nan nan nan nan nan nan nan nan nan nan nan nan nan nan 12 10 13 13 14 18 5 10 8 9 15 19 22 24 22 21 22 25 24 27 28 32 35 34 31 22 15 12 11
nan nan nan nan nan nan nan nan nan nan nan nan nan nan nan nan nan nan nan nan nan nan nan nan nan nan nan nan nan nan nan nan nan nan nan nan nan nan 25 nan nan nan nan nan nan nan nan nan nan nan nan nan nan nan nan nan nan nan 10 5 9 12 12 16 15 9 5 5 10 15 17 21 24 22 18 20 23 22 25 25 30 35 34 30 19 13 12 13
nan nan nan nan nan nan nan nan nan nan nan nan nan nan nan nan nan nan nan nan nan nan nan nan nan nan nan nan nan nan nan nan nan nan nan nan nan 26 25 24 23 nan nan nan nan nan nan nan nan nan nan nan nan nan nan nan 5 5 nan 7 6 10 10 13 15 15 11 8 12 16 18 22 23 22 19 22 24 22 23 27 30 31 30 28 23 17 15 15
nan nan nan nan nan nan nan nan nan nan nan nan nan nan nan nan nan nan nan nan nan nan nan nan nan nan nan nan nan nan nan nan nan nan nan nan 24 24 22 21 nan nan nan nan nan nan nan nan nan nan nan nan nan nan nan nan 3 4 9 13 12 10 9 7 12 16 15 14 14 12 16 23 24 23 18 16 20 19 22 27 29 26 25 23 22 20 18 17
nan nan nan nan nan nan nan nan nan nan nan nan nan nan nan nan nan nan nan nan nan nan nan nan nan nan nan nan nan nan 14 nan nan nan 18 22 22 22 20 20 nan nan nan nan nan nan nan nan nan nan nan nan nan nan 3 3 6 3 7 5 2 6 5 4 10 15 18 20 18 16 19 18 21 24 27 26 25 23 23 24 24 22 22 21 20 19 20 19
nan nan nan nan nan nan nan nan nan nan nan nan nan nan nan nan nan nan nan nan nan nan nan nan nan nan nan nan nan nan nan nan nan nan nan 19 21 20 18 nan nan nan nan nan nan nan nan nan nan nan nan 8 6 2 2 5 1 3 6 6 5 5 7 6 10 14 17 17 16 18 18 16 15 23 22 26 24 21 18 20 21 21 20 20 20 20 21 20
nan nan nan nan nan nan nan nan nan nan nan nan nan nan nan nan nan nan nan nan nan nan nan nan nan nan nan nan 11 10 nan nan nan nan 17 18 20 19 nan nan nan nan nan nan nan nan nan nan nan nan nan nan 4 8 9 10 7 3 5 6 5 4 6 9 9 9 14 19 17 10 13 17 19 17 21 23 20 16 18 20 22 22 22 21 22 22 21 19
nan nan nan nan nan nan nan nan nan nan nan nan nan nan nan nan nan nan nan nan nan nan nan nan nan nan nan nan 13 nan nan nan nan 14 18 22 nan nan nan nan nan nan nan nan nan nan nan nan nan nan nan 10 11 11 9 10 6 8 8 5 4 5 7 10 12 10 11 12 16 18 18 16 19 21 26 19 16 19 19 21 22 22 23 22 22 20 17 16
nan nan nan nan nan nan nan nan nan nan nan nan nan nan nan nan nan nan nan nan nan nan nan nan nan nan nan 11 nan nan nan nan 10 15 nan nan nan nan nan nan nan nan nan nan nan nan nan nan nan nan 4 4 7 4 8 6 10 12 11 6 5 7 8 10 12 10 8 8 12 18 15 13 11 10 16 17 15 14 14 18 19 20 20 19 16 14 13 11
nan nan nan nan nan nan nan nan nan nan nan nan nan nan nan nan nan nan nan nan nan nan nan nan nan nan 10 nan nan nan nan nan 11 15 nan nan nan nan nan nan nan nan nan nan nan nan nan nan nan nan nan 9 7 7 5 8 17 12 12 10 8 7 7 8 9 9 nan 14 13 17 19 18 19 19 15 16 14 15 17 17 17 15 15 14 13 11 7 6
nan nan nan nan nan nan nan nan nan nan nan nan nan nan nan nan nan nan nan nan nan nan nan nan nan nan 12 15 nan nan nan nan nan nan nan nan nan nan nan nan nan nan nan nan nan nan nan nan nan nan 16 16 10 13 10 12 11 13 11 9 8 3 7 6 4 nan nan 10 13 9 16 19 17 15 13 15 14 17 19 19 17 14 12 11 9 7 7 7
nan nan nan nan nan nan nan nan nan nan nan nan nan nan nan nan nan nan nan nan nan nan nan nan nan nan 11 nan nan nan nan nan nan nan nan nan nan nan nan nan nan nan nan nan nan nan nan nan nan nan 20 18 15 9 12 10 7 6 3 7 8 2 4 3 nan nan 7 11 16 14 11 11 14 14 16 14 14 14 16 17 15 13 10 6 6 7 8 8
nan nan nan nan nan nan nan nan nan nan nan nan nan nan nan nan nan nan nan nan nan nan nan nan nan nan 11 nan nan nan nan nan nan nan nan nan nan nan nan nan nan nan nan nan nan nan nan nan nan 14 16 14 7 15 13 9 11 6 7 8 7 7 5 5 8 10 7 11 17 18 nan 9 15 16 13 8 8 10 12 11 11 9 8 7 7 8 8 10
nan nan nan nan nan nan nan nan nan nan nan nan nan nan nan nan nan nan nan nan nan nan nan nan nan 10 8 nan nan nan nan nan nan nan nan nan nan nan nan nan nan nan nan nan nan nan nan 12 14 15 10 10 16 14 12 12 16 9 15 9 8 8 9 8 11 12 nan nan 16 13 10 9 9 11 10 8 6 7 8 7 7 7 8 8 7 6 7 9
nan nan nan nan nan nan nan nan nan nan nan nan nan nan nan nan nan nan nan nan nan nan nan nan 5 11 nan nan nan nan nan nan nan nan nan nan nan nan nan nan nan nan nan nan nan nan 10 13 9 10 14 15 12 11 11 8 13 14 14 8 5 7 9 11 11 9 12 nan 10 6 4 nan 8 9 9 9 9 10 10 10 9 8 7 7 6 6 6 6
nan nan nan nan nan nan nan nan nan nan nan nan nan nan nan nan nan nan nan nan nan nan nan 11 10 nan nan nan nan nan nan nan nan nan nan nan nan nan nan nan nan nan nan nan nan 11 11 8 10 11 9 10 7 10 15 10 8 13 7 7 6 6 11 7 8 9 6 8 5 nan 4 9 4 5 6 7 11 10 9 9 9 8 8 7 6 4 5 5
nan nan nan nan nan nan nan nan nan nan nan nan nan nan nan nan nan nan nan nan nan nan nan 9 nan 11 nan nan nan nan nan nan nan nan nan nan nan nan nan nan nan nan 12 13 12 10 10 9 10 6 5 9 8 nan 15 nan 12 nan 3 4 6 7 8 3 7 7 9 nan 5 nan 5 7 8 6 7 8 9 8 8 8 8 8 8 6 4 3 2 2
nan nan nan nan nan nan nan nan nan nan nan nan nan nan nan nan nan nan nan nan nan 4 7 nan 6 nan nan nan nan nan nan nan nan nan nan nan nan nan 13 12 13 13 8 10 9 11 9 8 6 5 7 5 10 12 nan nan nan 3 7 nan 7 6 4 5 2 9 11 7 4 1 4 5 5 8 8 9 9 8 8 8 9 8 6 5 3 2 1 1
nan nan nan nan nan nan nan nan nan nan nan nan nan nan 11 9 8 6 nan nan nan 11 11 nan nan nan nan nan nan nan nan nan nan nan nan nan nan nan nan 16 13 9 6 5 10 8 7 7 5 3 2 nan nan nan nan nan 8 9 5 8 9 0 2 1 4 7 10 6 1 4 5 6 6 8 9 9 9 9 8 7 8 7 5 3 2 1 1 2
nan nan nan nan nan nan nan nan nan nan nan nan nan 14 13 14 11 nan 8 5 5 nan nan nan nan nan nan nan nan nan nan nan nan nan nan nan nan nan nan 16 12 10 5 nan 4 5 5 4 1 nan nan nan 3 nan nan nan 7 9 6 4 3 3 1 3 3 6 5 8 2 1 4 6 5 6 8 8 8 7 7 6 6 5 3 2 2 3 3 3
nan nan nan nan nan nan nan nan nan nan nan nan nan 14 nan nan nan nan nan nan nan nan nan nan nan nan nan nan nan nan nan nan nan nan nan nan nan nan nan nan nan 8 nan nan nan 4 nan 3 nan nan nan 6 nan nan nan nan 4 nan 3 3 5 6 4 1 1 4 5 5 2 3 3 4 3 4 6 8 7 6 5 6 5 4 1 1 3 3 4 4
nan nan nan nan nan nan nan nan nan nan nan nan 11 nan nan nan nan nan nan 11 nan nan nan nan 6 nan nan nan nan nan nan nan nan nan nan nan nan nan nan nan nan nan nan nan 4 nan 4 nan nan 5 nan nan nan nan nan nan nan 3 nan 3 3 4 5 4 4 6 4 4 3 3 1 3 2 4 4 7 6 4 4 4 3 4 2 2 4 3 4 5
nan nan nan nan nan nan nan nan nan nan nan 13 nan nan nan nan nan nan nan 6 nan nan nan nan nan nan nan nan nan nan nan nan nan nan nan nan nan nan nan nan nan nan nan nan nan nan nan nan nan nan nan nan nan nan nan nan nan nan 2 6 6 7 1 8 8 6 5 4 4 4 1 1 3 3 2 3 4 2 1 1 3 2 2 2 2 3 4 5
nan nan nan nan nan nan nan nan nan 13 nan nan nan nan nan nan nan nan 11 nan nan nan nan nan nan nan nan nan nan nan nan nan nan nan nan nan nan nan nan nan nan nan nan nan nan nan nan nan nan nan nan nan nan nan nan nan nan 3 9 6 8 6 9 14 14 12 8 5 5 7 3 nan 4 4 3 3 1 1 1 3 4 5 4 3 4 5 5 4
nan nan nan nan nan nan nan 14 nan nan nan nan nan nan nan nan nan nan 11 nan nan nan nan nan nan nan nan nan nan nan nan nan nan nan nan nan nan nan nan nan nan nan nan nan nan nan nan nan nan nan nan nan nan nan nan nan nan nan 9 8 11 11 12 15 15 9 7 4 7 7 7 2 3 5 4 3 4 4 5 5 5 6 5 4 4 6 6 5
nan nan nan nan nan nan 16 nan nan nan nan nan nan nan nan nan nan nan 10 nan nan nan nan nan nan nan nan nan nan nan nan nan nan nan nan nan nan nan nan nan nan nan nan nan nan nan nan nan nan nan nan nan nan nan nan nan nan 7 nan 8 10 11 12 11 9 3 5 7 8 9 5 3 1 3 4 4 4 5 7 8 6 6 6 5 5 7 6 5
nan nan nan nan nan nan 19 nan nan nan nan nan nan nan nan 8 5 7 10 nan nan nan nan nan nan nan nan nan nan nan nan nan nan nan nan nan nan nan nan nan nan nan nan nan 5 nan nan nan nan nan nan nan nan nan nan nan 10 9 3 6 7 7 7 6 2 1 4 5 6 8 6 4 1 5 6 6 6 7 7 7 7 8 8 7 6 7 6 5
nan nan nan nan nan nan nan nan nan nan nan nan nan nan nan 6 8 10 nan nan nan nan nan nan nan nan nan nan nan nan nan nan nan nan nan nan nan nan nan nan nan nan nan nan nan nan nan nan nan nan nan nan nan nan nan nan 1 4 5 5 7 6 3 1 1 2 4 2 5 9 9 4 6 6 5 5 4 6 6 7 7 8 9 8 7 6 6 6
nan nan nan nan nan nan nan nan nan nan nan nan nan nan 7 8 10 6 nan nan nan nan nan nan nan nan nan nan nan nan nan nan nan nan nan nan nan nan nan nan nan nan nan nan nan nan nan nan nan nan nan nan nan 2 nan nan 2 8 5 6 5 4 2 1 1 2 3 nan 5 8 8 nan nan 6 6 7 5 5 4 6 6 7 7 7 7 6 6 6
nan nan nan nan nan nan nan nan nan nan nan nan nan 8 10 10 9 nan nan nan nan nan nan nan nan nan nan nan nan nan nan nan nan nan nan nan nan nan nan nan nan nan nan nan nan nan nan nan nan nan nan 3 3 2 3 4 11 11 5 2 1 1 1 1 1 1 1 nan 7 6 3 3 nan 6 6 8 5 3 5 6 8 9 9 8 8 8 8 8
nan nan nan nan nan nan nan nan nan nan nan nan 10 10 11 7 nan nan nan nan nan nan nan nan nan nan nan nan nan nan nan nan nan nan nan nan nan nan nan nan nan nan nan nan nan nan nan nan nan nan nan 8 nan nan 5 8 9 9 6 6 nan nan 2 nan 2 nan nan nan 8 3 2 1 3 6 8 11 6 5 3 4 7 9 10 10 11 11 9 8
nan nan nan nan nan nan nan nan nan nan nan 12 12 10 9 nan nan nan nan nan nan nan nan nan nan nan nan nan nan nan nan nan nan nan nan nan nan nan nan nan nan nan nan nan nan nan nan nan nan nan nan 12 13 nan 6 10 12 10 9 nan 9 nan nan nan nan 3 2 nan nan 1 1 5 5 7 5 6 7 7 6 5 7 11 12 14 14 12 10 9
nan nan nan nan nan nan nan nan nan nan 16 13 nan 8 7 nan nan nan 4 nan nan nan nan nan nan nan nan nan nan nan nan nan nan nan nan nan nan nan nan nan nan nan nan nan nan nan nan nan nan nan nan nan nan nan 6 nan 9 nan 8 nan 10 9 8 nan nan nan 4 4 4 3 nan nan 3 8 6 6 5 7 7 7 8 11 14 15 14 12 11 10
nan nan nan nan nan nan nan nan nan 15 14 nan nan 9 nan nan nan nan nan nan nan nan nan nan nan nan nan nan nan nan nan nan nan nan nan nan nan nan nan nan nan nan nan nan nan nan nan nan nan nan nan nan nan nan nan nan 5 6 nan nan 12 9 nan 10 10 10 4 1 1 nan 2 4 7 9 8 6 7 8 8 8 12 13 13 14 12 12 12 10
nan nan nan nan nan nan nan nan nan 13 14 nan nan 7 nan nan nan nan nan nan nan nan nan nan nan nan nan nan nan nan nan nan nan nan nan nan nan nan nan nan nan nan nan nan nan nan nan nan nan nan nan nan nan nan 4 nan 7 3 nan 8 8 nan nan nan nan 7 nan nan nan nan 1 4 9 8 9 9 10 11 9 10 11 12 13 12 11 11 10 9
nan nan 15 nan nan nan nan nan nan 13 nan nan 10 nan 9 nan nan nan 4 7 nan nan nan nan nan nan nan nan nan nan nan nan nan nan nan nan nan nan nan nan nan nan nan nan nan nan nan nan nan nan nan nan nan nan nan nan nan 2 nan 3 nan nan nan 7 nan nan nan nan nan nan nan 6 4 7 10 12 10 10 9 9 10 10 10 10 9 10 10 11
nan nan nan nan nan nan nan nan 14 12 nan nan nan nan 8 7 nan 8 nan nan nan nan nan nan nan nan nan nan nan nan nan nan nan nan nan nan nan nan nan nan nan nan nan nan nan nan nan nan nan nan nan nan nan nan nan nan nan nan 6 nan 8 2 nan 2 nan nan nan nan nan 4 nan nan 2 10 12 12 12 12 11 10 11 11 11 10 11 11 11 11
nan nan nan 17 nan nan nan nan 13 nan nan nan 6 6 nan 10 nan nan nan nan nan nan nan nan nan nan nan nan nan nan nan nan nan nan nan nan nan nan nan nan nan nan nan nan nan nan nan nan nan nan nan nan nan nan nan nan nan nan nan nan nan nan 7 5 5 9 7 nan nan 6 nan 11 8 11 13 15 14 16 15 13 13 13 12 11 11 11 13 13
nan nan nan 19 nan nan nan 13 nan nan nan nan 7 8 nan nan nan nan nan nan nan nan nan nan nan nan nan nan nan nan nan nan nan nan nan nan nan nan nan nan nan nan nan nan nan nan nan nan nan nan nan nan nan nan nan nan nan nan nan nan nan nan nan nan nan nan nan nan nan nan nan 13 14 11 11 15 16 17 17 15 13 13 14 14 13 12 13 14
nan nan 16 17 nan nan nan 11 nan nan nan nan nan nan nan nan nan nan nan nan nan nan nan nan nan nan nan nan nan nan nan nan nan nan nan nan nan nan nan nan nan nan nan nan nan nan nan nan nan nan nan nan nan nan nan nan nan nan nan nan nan 1 nan nan nan nan nan 4 nan nan nan 14 15 12 11 12 16 16 17 16 15 15 16 14 12 12 13 13
nan nan 15 18 17 nan 15 nan nan nan nan nan nan nan nan nan nan nan nan nan nan nan nan nan nan nan nan nan nan nan nan nan nan nan nan nan nan nan nan nan nan nan nan nan nan nan 8 nan nan nan nan nan nan nan nan nan nan nan nan nan nan nan nan nan nan nan nan nan nan 7 nan 14 16 15 13 12 14 16 16 16 15 15 14 nan nan 13 12 11
nan nan 19 17 nan 16 nan nan nan nan nan nan nan nan nan nan nan nan nan nan nan nan nan nan nan nan nan nan nan nan nan nan nan nan nan nan nan nan nan nan nan nan nan nan nan nan nan nan nan nan nan nan nan nan nan nan nan nan nan nan nan nan nan nan nan nan nan nan nan nan nan 16 17 15 14 13 12 12 14 14 14 13 nan nan nan 12 11 11
nan nan 12 14 15 17 nan nan nan nan nan nan 12 13 nan nan nan nan nan nan nan nan nan nan nan nan nan nan nan nan nan nan nan nan nan nan nan nan nan nan nan nan nan nan nan nan nan nan nan nan nan nan nan nan nan nan nan nan nan nan nan nan nan nan nan nan nan nan nan nan nan nan 17 14 15 12 13 13 12 12 11 12 11 11 nan 10 9 9
15 16 15 15 16 16 15 nan nan nan 11 14 15 nan nan nan nan nan nan nan nan nan nan nan nan nan nan nan nan nan nan nan nan nan nan nan nan nan nan nan nan nan nan nan 7 nan nan nan nan nan nan nan nan nan nan nan nan nan nan nan nan nan nan 2 nan nan nan 9 nan nan nan 17 18 15 14 12 12 12 10 11 10 8 9 9 9 9 8 9
nan nan 13 12 15 15 17 16 16 13 nan 13 nan nan nan nan nan nan nan nan nan nan nan nan nan nan nan nan nan nan nan nan nan nan nan nan nan nan nan nan nan 6 4 3 nan nan 4 nan nan nan nan nan nan nan nan nan nan nan nan nan nan nan nan nan nan nan nan nan nan nan nan 14 16 16 14 12 11 11 11 10 10 nan 9 8 9 8 8 8
nan nan nan 12 14 15 15 13 13 nan nan 16 nan nan nan nan nan nan nan nan nan nan nan nan nan nan nan nan nan nan nan nan nan nan nan nan nan nan nan 8 2 nan nan nan nan nan nan nan nan 4 5 nan nan nan nan nan nan nan nan nan nan nan nan nan nan nan nan nan nan nan nan nan 12 nan 13 11 11 nan nan nan nan nan 9 8 8 8 7 7
nan 16 16 20 17 nan nan nan 12 12 14 14 15 nan 11 nan nan nan nan nan nan nan nan nan nan nan nan nan nan nan nan nan nan nan nan nan nan nan nan nan nan 6 12 nan nan 9 nan nan nan 4 nan nan nan nan nan nan nan nan nan nan nan nan nan nan nan nan nan nan nan nan nan nan nan nan nan nan nan nan nan nan nan 8 8 7 7 5 6 7
21 19 17 18 16 nan 20 22 16 14 11 13 14 13 nan nan nan nan nan nan nan nan nan nan nan nan nan nan nan nan nan nan nan nan nan nan nan nan nan nan nan nan nan nan nan nan 8 nan nan nan nan nan nan nan nan nan nan nan nan nan nan nan nan nan nan nan nan nan nan nan nan nan nan nan nan nan nan nan 8 7 6 nan nan nan nan nan nan nan
16 15 15 15 19 nan 19 18 16 12 11 13 nan nan 13 nan nan nan nan nan nan nan nan nan nan nan nan nan nan nan nan nan nan nan nan nan nan nan nan nan nan nan nan nan nan 4 9 nan nan nan nan nan nan nan nan nan nan nan nan nan nan nan nan nan nan nan nan nan nan nan nan nan nan nan nan 6 5 nan nan nan nan nan nan nan nan nan nan nan
25 23 21 15 13 18 17 17 15 nan nan 12 nan 14 nan nan nan nan nan nan nan nan nan nan nan nan nan nan nan nan nan nan nan nan nan nan nan nan nan nan nan nan nan nan nan nan nan nan nan nan nan nan nan nan nan nan nan nan nan nan nan nan nan nan nan nan nan nan nan nan nan nan nan nan nan 6 5 nan nan nan nan nan nan nan nan nan nan nan
23 21 19 19 16 18 16 18 17 nan nan nan nan 14 nan nan nan nan nan nan nan nan nan nan nan nan nan nan nan nan nan nan nan nan nan nan nan nan nan nan nan nan nan nan nan nan nan nan nan nan nan nan nan nan nan nan nan nan nan nan nan nan nan nan nan nan nan nan nan nan nan nan nan nan nan nan nan nan nan nan nan nan nan nan nan nan nan nan
Wind_Direction
nan nan nan nan nan nan nan nan nan nan nan nan nan nan nan nan nan nan nan nan nan nan nan nan nan nan nan nan nan nan nan nan nan nan nan nan nan nan nan nan nan nan nan nan nan nan nan nan nan nan nan nan nan nan nan nan nan nan nan nan 191 229 206 200 213 nan 202 240 228 217 209 217 226 228 231 237 237 238 240 245 247 250 246 240 241 231 245 272
nan nan nan nan nan nan nan nan nan nan nan nan nan nan nan nan nan nan nan nan nan nan nan nan nan nan nan nan nan nan nan nan nan nan nan nan nan nan nan nan nan nan nan nan nan nan nan nan nan nan nan nan nan nan nan nan nan nan nan 152 207 202 183 194 227 185 194 213 220 215 213 214 224 227 226 233 244 244 244 246 252 254 254 251 249 254 263 276
nan nan nan nan nan nan nan nan nan nan nan nan nan nan nan nan nan nan nan nan nan nan nan nan nan nan nan nan nan nan nan nan nan nan nan nan nan nan 31 nan nan nan nan nan nan nan nan nan nan nan nan nan nan nan nan nan nan nan 135 173 199 193 206 202 214 229 239 232 231 222 216 213 216 220 221 236 241 240 245 253 254 254 256 258 264 270 277 260
nan nan nan nan nan nan nan nan nan nan nan nan nan nan nan nan nan nan nan nan nan nan nan nan nan nan nan nan nan nan nan nan nan nan nan nan nan 37 37 38 42 nan nan nan nan nan nan nan nan nan nan nan nan nan nan nan 57 187 nan 137 209 199 201 200 210 213 211 213 228 221 221 219 217 226 232 246 244 239 241 238 243 249 254 264 275 286 294 289
nan nan nan nan nan nan nan nan nan nan nan nan nan nan nan nan nan nan nan nan nan nan nan nan nan nan nan nan nan nan nan nan nan nan nan nan 41 42 39 43 nan nan nan nan nan nan nan nan nan nan nan nan nan nan nan nan 306 170 200 197 220 211 207 199 220 211 205 212 225 218 210 222 221 230 241 239 249 249 246 240 236 238 246 262 276 284 295 295
nan nan nan nan nan nan nan nan nan nan nan nan nan nan nan nan nan nan nan nan nan nan nan nan nan nan nan nan nan nan 62 nan nan nan 26 36 43 44 43 52 nan nan nan nan nan nan nan nan nan nan nan nan nan nan 60 333 29 294 239 264 204 233 237 200 218 223 227 206 196 209 210 216 221 226 226 236 244 251 249 238 233 235 238 246 257 267 277 280
nan nan nan nan nan nan nan nan nan nan nan nan nan nan nan nan nan nan nan nan nan nan nan nan nan nan nan nan nan nan nan nan nan nan nan 44 48 44 46 nan nan nan nan nan nan nan nan nan nan nan nan 113 82 120 275 331 123 270 270 264 241 249 245 232 236 237 236 249 221 206 194 216 231 229 228 237 236 234 233 231 235 243 243 244 247 250 255 257
nan nan nan nan nan nan nan nan nan nan nan nan nan nan nan nan nan nan nan nan nan nan nan nan nan nan nan nan 60 47 nan nan nan nan 39 48 52 44 nan nan nan nan nan nan nan nan nan nan nan nan nan nan 17 342 337 318 8 327 287 268 251 248 252 235 237 251 255 241 244 250 217 216 226 225 229 226 224 230 231 235 238 240 240 242 246 246 246 250
nan nan nan nan nan nan nan nan nan nan nan nan nan nan nan nan nan nan nan nan nan nan nan nan nan nan nan nan 81 nan nan nan nan 14 24 41 nan nan nan nan nan nan nan nan nan nan nan nan nan nan nan 7 350 338 7 344 339 342 315 301 259 253 253 245 246 252 255 240 245 245 237 231 237 233 221 221 229 226 224 235 239 238 236 237 237 238 240 245
nan nan nan nan nan nan nan nan nan nan nan nan nan nan nan nan nan nan nan nan nan nan nan nan nan nan nan 95 nan nan nan nan 15 14 nan nan nan nan nan nan nan nan nan nan nan nan nan nan nan nan 347 316 33 12 37 25 334 330 317 291 265 274 260 238 248 248 241 233 229 241 231 216 197 199 216 218 223 238 236 241 244 245 242 237 233 230 230 240
nan nan nan nan nan nan nan nan nan nan nan nan nan nan nan nan nan nan nan nan nan nan nan nan nan nan 112 nan nan nan nan nan 28 27 nan nan nan nan nan nan nan nan nan nan nan nan nan nan nan nan nan 15 1 357 319 313 321 321 311 300 291 286 240 246 260 234 nan 191 202 225 228 224 226 223 218 217 225 231 239 245 244 244 245 240 235 235 231 225
nan nan nan nan nan nan nan nan nan nan nan nan nan nan nan nan nan nan nan nan nan nan nan nan nan nan 115 100 nan nan nan nan nan nan nan nan nan nan nan nan nan nan nan nan nan nan nan nan nan nan 24 17 353 316 307 325 319 326 320 296 309 303 208 215 227 nan nan 191 171 221 223 217 208 215 226 234 230 238 242 240 236 235 240 238 231 220 205 201
nan nan nan nan nan nan nan nan nan nan nan nan nan nan nan nan nan nan nan nan nan nan nan nan nan nan 121 nan nan nan nan nan nan nan nan nan nan nan nan nan nan nan nan nan nan nan nan nan nan nan 5 19 24 44 356 348 347 21 335 318 338 357 210 209 nan nan 177 152 149 158 181 196 215 211 221 213 228 238 248 243 234 224 215 221 223 200 193 189
nan nan nan nan nan nan nan nan nan nan nan nan nan nan nan nan nan nan nan nan nan nan nan nan nan nan 108 nan nan nan nan nan nan nan nan nan nan nan nan nan nan nan nan nan nan nan nan nan nan 360 19 19 2 332 356 26 49 37 19 56 76 71 91 96 116 133 148 147 147 147 nan 206 206 203 206 217 222 229 232 226 219 205 190 178 186 188 191 188
nan nan nan nan nan nan nan nan nan nan nan nan nan nan nan nan nan nan nan nan nan nan nan nan nan 119 102 nan nan nan nan nan nan nan nan nan nan nan nan nan nan nan nan nan nan nan nan 13 0 4 11 348 343 6 11 48 58 40 59 69 80 76 57 59 100 119 nan nan 151 167 199 197 205 190 186 191 192 179 193 184 179 176 165 158 169 191 193 189
nan nan nan nan nan nan nan nan nan nan nan nan nan nan nan nan nan nan nan nan nan nan nan nan 118 118 nan nan nan nan nan nan nan nan nan nan nan nan nan nan nan nan nan nan nan nan 8 13 20 338 338 346 354 39 36 54 80 71 99 78 78 71 47 54 72 99 124 nan 110 103 162 nan 178 173 177 169 153 153 161 159 166 174 162 150 168 187 193 197
nan nan nan nan nan nan nan nan nan nan nan nan nan nan nan nan nan nan nan nan nan nan nan 148 150 nan nan nan nan nan nan nan nan nan nan nan nan nan nan nan nan nan nan nan nan 341 333 331 324 328 353 28 336 37 60 51 68 90 88 105 99 67 58 75 67 87 79 122 174 nan 207 235 234 182 169 154 138 142 151 160 161 153 147 149 156 177 184 185
nan nan nan nan nan nan nan nan nan nan nan nan nan nan nan nan nan nan nan nan nan nan nan 111 nan 104 nan nan nan nan nan nan nan nan nan nan nan nan nan nan nan nan 322 329 345 336 346 328 6 326 342 60 25 nan 43 nan 45 nan 331 61 66 71 94 91 70 59 56 nan 152 nan 270 257 228 186 160 146 126 145 153 147 143 138 131 125 129 151 159 187
nan nan nan nan nan nan nan nan nan nan nan nan nan nan nan nan nan nan nan nan nan 138 115 nan 70 nan nan nan nan nan nan nan nan nan nan nan nan nan 21 12 349 340 347 2 333 342 352 329 4 353 30 355 51 71 nan nan nan 9 332 nan 54 59 68 85 43 38 60 65 74 183 233 236 201 178 161 144 128 141 137 135 133 126 113 96 102 128 117 242
nan nan nan nan nan nan nan nan nan nan nan nan nan nan 123 116 105 125 nan nan nan 151 169 nan nan nan nan nan nan nan nan nan nan nan nan nan nan nan nan 15 16 40 13 52 343 352 359 351 356 40 62 nan nan nan nan nan 233 271 324 333 60 83 158 96 46 44 62 41 125 226 231 212 195 172 170 155 139 137 122 122 122 113 94 69 69 46 316 291
nan nan nan nan nan nan nan nan nan nan nan nan nan 129 148 154 132 nan 156 146 155 nan nan nan nan nan nan nan nan nan nan nan nan nan nan nan nan nan nan 30 33 40 56 nan 335 304 54 52 15 nan nan nan 269 nan nan nan 310 287 354 73 208 184 173 72 25 38 55 91 31 215 237 213 193 162 155 148 134 131 114 100 97 87 82 84 34 3 320 280
nan nan nan nan nan nan nan nan nan nan nan nan nan 144 nan nan nan nan nan nan nan nan nan nan nan nan nan nan nan nan nan nan nan nan nan nan nan nan nan nan nan 58 nan nan nan 10 nan 113 nan nan nan 231 nan nan nan nan 304 nan 81 179 208 212 240 175 17 55 67 61 25 22 228 200 175 154 147 137 145 154 117 94 79 67 66 77 49 355 319 331
nan nan nan nan nan nan nan nan nan nan nan nan 138 nan nan nan nan nan nan 131 nan nan nan nan 62 nan nan nan nan nan nan nan nan nan nan nan nan nan nan nan nan nan nan nan 35 nan 80 nan nan 233 nan nan nan nan nan nan nan 330 nan 64 226 301 0 340 352 35 43 91 359 28 182 197 154 142 140 141 159 174 153 115 94 90 26 40 35 351 335 327
nan nan nan nan nan nan nan nan nan nan nan 133 nan nan nan nan nan nan nan 122 nan nan nan nan nan nan nan nan nan nan nan nan nan nan nan nan nan nan nan nan nan nan nan nan nan nan nan nan nan nan nan nan nan nan nan nan nan nan 165 231 258 352 277 315 330 344 341 282 327 5 84 93 74 50 76 117 155 184 176 83 39 52 77 42 34 341 339 307
nan nan nan nan nan nan nan nan nan 148 nan nan nan nan nan nan nan nan 104 nan nan nan nan nan nan nan nan nan nan nan nan nan nan nan nan nan nan nan nan nan nan nan nan nan nan nan nan nan nan nan nan nan nan nan nan nan nan 245 204 228 314 339 290 303 319 323 328 326 11 14 358 nan 33 59 43 301 342 13 313 5 360 343 354 9 21 344 316 295
nan nan nan nan nan nan nan 149 nan nan nan nan nan nan nan nan nan nan 109 nan nan nan nan nan nan nan nan nan nan nan nan nan nan nan nan nan nan nan nan nan nan nan nan nan nan nan nan nan nan nan nan nan nan nan nan nan nan nan 240 245 293 301 303 314 325 343 325 2 3 42 116 278 12 33 31 349 6 347 323 21 357 339 335 341 341 326 318 310
nan nan nan nan nan nan 144 nan nan nan nan nan nan nan nan nan nan nan 120 nan nan nan nan nan nan nan nan nan nan nan nan nan nan nan nan nan nan nan nan nan nan nan nan nan nan nan nan nan nan nan nan nan nan nan nan nan nan 218 nan 266 286 295 307 320 336 36 235 249 342 36 82 139 2 31 360 355 22 6 354 3 1 340 339 331 322 318 328 330
nan nan nan nan nan nan 155 nan nan nan nan nan nan nan nan 158 143 126 113 nan nan nan nan nan nan nan nan nan nan nan nan nan nan nan nan nan nan nan nan nan nan nan nan nan 82 nan nan nan nan nan nan nan nan nan nan nan 166 228 274 280 283 290 295 315 355 295 276 322 330 22 34 88 217 277 318 332 6 22 18 4 354 349 344 332 327 330 341 346
nan nan nan nan nan nan nan nan nan nan nan nan nan nan nan 150 114 120 nan nan nan nan nan nan nan nan nan nan nan nan nan nan nan nan nan nan nan nan nan nan nan nan nan nan nan nan nan nan nan nan nan nan nan nan nan nan 220 280 303 264 246 249 278 281 355 301 304 16 318 354 7 74 295 301 323 332 37 24 20 9 2 355 350 342 332 342 354 340
nan nan nan nan nan nan nan nan nan nan nan nan nan nan 144 127 120 106 nan nan nan nan nan nan nan nan nan nan nan nan nan nan nan nan nan nan nan nan nan nan nan nan nan nan nan nan nan nan nan nan nan nan nan 138 nan nan 295 340 331 290 291 276 227 254 162 296 305 nan 279 322 341 nan nan 339 338 332 9 31 358 350 352 353 353 348 338 353 357 336
nan nan nan nan nan nan nan nan nan nan nan nan nan 128 124 127 134 nan nan nan nan nan nan nan nan nan nan nan nan nan nan nan nan nan nan nan nan nan nan nan nan nan nan nan nan nan nan nan nan nan nan 337 310 256 128 7 345 0 10 2 338 268 263 69 349 2 149 nan 269 288 327 316 nan 293 325 341 306 340 6 354 351 355 354 346 345 355 354 333
nan nan nan nan nan nan nan nan nan nan nan nan 138 132 125 140 nan nan nan nan nan nan nan nan nan nan nan nan nan nan nan nan nan nan nan nan nan nan nan nan nan nan nan nan nan nan nan nan nan nan nan 47 nan nan 44 24 30 53 44 43 nan nan 43 nan 56 nan nan nan 268 281 307 145 109 232 292 334 337 291 318 337 345 352 349 346 347 353 344 328
nan nan nan nan nan nan nan nan nan nan nan 130 135 152 128 nan nan nan nan nan nan nan nan nan nan nan nan nan nan nan nan nan nan nan nan nan nan nan nan nan nan nan nan nan nan nan nan nan nan nan nan 62 84 nan 40 51 59 61 61 nan 88 nan nan nan nan 164 216 nan nan 282 272 112 246 286 267 287 324 309 308 334 338 345 345 346 346 347 343 346
nan nan nan nan nan nan nan nan nan nan 143 138 nan 142 156 nan nan nan 154 nan nan nan nan nan nan nan nan nan nan nan nan nan nan nan nan nan nan nan nan nan nan nan nan nan nan nan nan nan nan nan nan nan nan nan 51 nan 48 nan 99 nan 119 122 135 nan nan nan 187 218 289 291 nan nan 337 261 274 254 274 309 300 325 319 327 339 341 347 349 348 354
nan nan nan nan nan nan nan nan nan 147 144 nan nan 130 nan nan nan nan nan nan nan nan nan nan nan nan nan nan nan nan nan nan nan nan nan nan nan nan nan nan nan nan nan nan nan nan nan nan nan nan nan nan nan nan nan nan 57 86 nan nan 107 152 nan 138 160 157 167 222 344 nan 160 226 246 284 270 269 292 306 302 319 319 324 328 336 343 347 352 350
nan nan nan nan nan nan nan nan nan 145 149 nan nan 142 nan nan nan nan nan nan nan nan nan nan nan nan nan nan nan nan nan nan nan nan nan nan nan nan nan nan nan nan nan nan nan nan nan nan nan nan nan nan nan nan 73 nan 98 52 nan 90 153 nan nan nan nan 154 nan nan nan nan 5 317 280 301 282 293 305 306 307 316 322 323 329 334 338 341 345 338
nan nan 161 nan nan nan nan nan nan 148 nan nan 138 nan 166 nan nan nan 169 139 nan nan nan nan nan nan nan nan nan nan nan nan nan nan nan nan nan nan nan nan nan nan nan nan nan nan nan nan nan nan nan nan nan nan nan nan nan 34 nan 135 nan nan nan 123 nan nan nan nan nan nan nan 297 331 288 302 306 305 306 317 327 331 329 331 335 328 332 334 332
nan nan nan nan nan nan nan nan 151 152 nan nan nan nan 153 148 nan 156 nan nan nan nan nan nan nan nan nan nan nan nan nan nan nan nan nan nan nan nan nan nan nan nan nan nan nan nan nan nan nan nan nan nan nan nan nan nan nan nan 175 nan 111 132 nan 347 nan nan nan nan nan 263 nan nan 260 284 311 323 319 320 325 334 340 337 336 336 332 336 333 328
nan nan nan 186 nan nan nan nan 145 nan nan nan 168 152 nan 166 nan nan nan nan nan nan nan nan nan nan nan nan nan nan nan nan nan nan nan nan nan nan nan nan nan nan nan nan nan nan nan nan nan nan nan nan nan nan nan nan nan nan nan nan nan nan 149 146 193 174 141 nan nan 265 nan 256 259 275 322 322 323 324 327 334 340 337 337 333 329 331 332 337
nan nan nan 189 nan nan nan 156 nan nan nan nan 164 170 nan nan nan nan nan nan nan nan nan nan nan nan nan nan nan nan nan nan nan nan nan nan nan nan nan nan nan nan nan nan nan nan nan nan nan nan nan nan nan nan nan nan nan nan nan nan nan nan nan nan nan nan nan nan nan nan nan 266 260 258 300 310 320 326 330 332 331 327 332 333 331 332 334 337
nan nan 185 188 nan nan nan 161 nan nan nan nan nan nan nan nan nan nan nan nan nan nan nan nan nan nan nan nan nan nan nan nan nan nan nan nan nan nan nan nan nan nan nan nan nan nan nan nan nan nan nan nan nan nan nan nan nan nan nan nan nan 229 nan nan nan nan nan 215 nan nan nan 265 266 272 274 294 312 321 325 324 324 326 326 329 327 332 333 334
nan nan 191 187 178 nan 159 nan nan nan nan nan nan nan nan nan nan nan nan nan nan nan nan nan nan nan nan nan nan nan nan nan nan nan nan nan nan nan nan nan nan nan nan nan nan nan 144 nan nan nan nan nan nan nan nan nan nan nan nan nan nan nan nan nan nan nan nan nan nan 243 nan 267 265 269 276 278 301 312 316 317 320 323 324 nan nan 331 333 341
nan nan 195 176 nan 161 nan nan nan nan nan nan nan nan nan nan nan nan nan nan nan nan nan nan nan nan nan nan nan nan nan nan nan nan nan nan nan nan nan nan nan nan nan nan nan nan nan nan nan nan nan nan nan nan nan nan nan nan nan nan nan nan nan nan nan nan nan nan nan nan nan 274 275 272 278 284 289 298 306 314 316 318 nan nan nan 326 334 339
nan nan 192 189 174 167 nan nan nan nan nan nan 158 165 nan nan nan nan nan nan nan nan nan nan nan nan nan nan nan nan nan nan nan nan nan nan nan nan nan nan nan nan nan nan nan nan nan nan nan nan nan nan nan nan nan nan nan nan nan nan nan nan nan nan nan nan nan nan nan nan nan nan 285 284 288 298 309 309 309 309 312 312 317 320 nan 322 326 333
192 189 181 191 183 173 165 nan nan nan 182 169 163 nan nan nan nan nan nan nan nan nan nan nan nan nan nan nan nan nan nan nan nan nan nan nan nan nan nan nan nan nan nan nan 157 nan nan nan nan nan nan nan nan nan nan nan nan nan nan nan nan nan nan 299 nan nan nan 280 nan nan nan 268 278 291 293 299 305 306 309 311 313 313 318 322 318 320 326 331
nan nan 191 191 186 187 185 180 175 174 nan 174 nan nan nan nan nan nan nan nan nan nan nan nan nan nan nan nan nan nan nan nan nan nan nan nan nan nan nan nan nan 114 176 158 nan nan 92 nan nan nan nan nan nan nan nan nan nan nan nan nan nan nan nan nan nan nan nan nan nan nan nan 265 283 293 293 296 303 304 307 316 322 nan 321 309 302 311 319 325
nan nan nan 188 192 176 182 182 181 nan nan 179 nan nan nan nan nan nan nan nan nan nan nan nan nan nan nan nan nan nan nan nan nan nan nan nan nan nan nan 109 74 nan nan nan nan nan nan nan nan 128 191 nan nan nan nan nan nan nan nan nan nan nan nan nan nan nan nan nan nan nan nan nan 278 nan 284 296 296 nan nan nan nan nan 309 307 301 302 310 327
nan 197 188 189 181 nan nan nan 179 179 186 171 184 nan 174 nan nan nan nan nan nan nan nan nan nan nan nan nan nan nan nan nan nan nan nan nan nan nan nan nan nan 31 59 nan nan 72 nan nan nan 60 nan nan nan nan nan nan nan nan nan nan nan nan nan nan nan nan nan nan nan nan nan nan nan nan nan nan nan nan nan nan nan 277 282 289 298 321 338 338
186 201 195 192 183 nan 188 197 189 181 184 177 185 178 nan nan nan nan nan nan nan nan nan nan nan nan nan nan nan nan nan nan nan nan nan nan nan nan nan nan nan nan nan nan nan nan 67 nan nan nan nan nan nan nan nan nan nan nan nan nan nan nan nan nan nan nan nan nan nan nan nan nan nan nan nan nan nan nan 269 266 276 nan nan nan nan nan nan nan
202 198 207 190 189 nan 196 191 190 183 185 201 nan nan 178 nan nan nan nan nan nan nan nan nan nan nan nan nan nan nan nan nan nan nan nan nan nan nan nan nan nan nan nan nan nan 32 79 nan nan nan nan nan nan nan nan nan nan nan nan nan nan nan nan nan nan nan nan nan nan nan nan nan nan nan nan 263 254 nan nan nan nan nan nan nan nan nan nan nan
196 196 195 197 197 205 196 190 188 nan nan 198 nan 203 nan nan nan nan nan nan nan nan nan nan nan nan nan nan nan nan nan nan nan nan nan nan nan nan nan nan nan nan nan nan nan nan nan nan nan nan nan nan nan nan nan nan nan nan nan nan nan nan nan nan nan nan nan nan nan nan nan nan nan nan nan 284 300 nan nan nan nan nan nan nan nan nan nan nan
194 203 195 190 196 206 189 200 189 nan nan nan nan 207 nan nan nan nan nan nan nan nan nan nan nan nan nan nan nan nan nan nan nan nan nan nan nan nan nan nan nan nan nan nan nan nan nan nan nan nan nan nan nan nan nan nan nan nan nan nan nan nan nan nan nan nan nan nan nan nan nan nan nan nan nan nan nan nan nan nan nan nan nan nan nan nan nan nan